OBJECT F

基本信息
目录编号:
51951
目录名称:
OBJECT F
国际标识:
2022-023F
轨道中心:
EARTH
物体状态:
在轨
发射日期:
2022-03-05 UTC
国别:
中国 (CN)
轨道信息
数据来源: 国际轨道数据
星历时间: 2026-09-04T14:22:28+0800
半长轴: 6890.13km
偏心率: 0.0134604
轨道倾角: 63.450°
近地点辐角: 341.673°
升交点赤经: 4.670°
平近点角: 17.956°
近地点: 419.249km
远地点: 604.737km
周期: 94.864分钟
每日圈数: 15.179646
详细信息
发射场:
XSC
轨道高度:
LEO
数据来源:
AOE Working Group
参考系:
TEME
时间系统:
UTC
历元类型:
SGP4
2D轨道图
3D轨道图
轨道高度分析图
轨道倾角分析图
轨道综合分析图
查看轨道综合分析图